TimeCST,TemperatureF,Dew PointF,Humidity,Sea Level PressureIn,VisibilityMPH,Wind Direction,Wind SpeedMPH,Gust SpeedMPH,PrecipitationIn,Events,Conditions,WindDirDegrees,DateUTC
12:15 AM,44.6,30.2,57,29.83,10.0,NNW,19.6,24.2,N/A,,Overcast,330,2014-01-25 06:15:00
12:35 AM,44.6,30.2,57,29.84,10.0,NNW,18.4,-,N/A,,Overcast,330,2014-01-25 06:35:00
12:55 AM,44.6,30.2,57,29.84,10.0,NW,20.7,28.8,N/A,,Overcast,320,2014-01-25 06:55:00
1:15 AM,42.8,28.4,57,29.84,10.0,NW,16.1,-,N/A,,Overcast,320,2014-01-25 07:15:00
1:35 AM,41.0,28.4,61,29.85,10.0,WNW,10.4,-,N/A,,Mostly Cloudy,300,2014-01-25 07:35:00
1:55 AM,41.0,28.4,61,29.85,10.0,NW,15.0,21.9,N/A,,Scattered Clouds,320,2014-01-25 07:55:00
2:15 AM,39.2,28.4,65,29.86,10.0,NW,11.5,16.1,N/A,,Mostly Cloudy,320,2014-01-25 08:15:00
2:35 AM,37.4,26.6,65,29.86,10.0,WNW,6.9,-,N/A,,Scattered Clouds,300,2014-01-25 08:35:00
2:55 AM,37.4,26.6,65,29.87,10.0,West,4.6,-,N/A,,Mostly Cloudy,270,2014-01-25 08:55:00
3:15 AM,37.4,26.6,65,29.87,10.0,West,5.8,-,N/A,,Mostly Cloudy,260,2014-01-25 09:15:00
3:35 AM,35.6,26.6,70,29.86,10.0,West,3.5,-,N/A,,Partly Cloudy,280,2014-01-25 09:35:00
3:55 AM,37.4,26.6,65,29.87,10.0,West,5.8,-,N/A,,Mostly Cloudy,270,2014-01-25 09:55:00
4:15 AM,39.2,28.4,65,29.87,10.0,WNW,10.4,-,N/A,,Mostly Cloudy,290,2014-01-25 10:15:00
4:35 AM,41.0,28.4,61,29.86,10.0,WNW,11.5,-,N/A,,Overcast,290,2014-01-25 10:35:00
4:55 AM,41.0,28.4,61,29.86,10.0,WNW,13.8,17.3,N/A,,Overcast,290,2014-01-25 10:55:00
5:15 AM,41.0,30.2,65,29.87,10.0,NW,20.7,28.8,N/A,,Overcast,310,2014-01-25 11:15:00
5:35 AM,39.2,30.2,70,29.87,10.0,NW,10.4,-,N/A,,Overcast,310,2014-01-25 11:35:00
5:55 AM,39.2,30.2,70,29.88,10.0,NNW,8.1,-,N/A,,Overcast,340,2014-01-25 11:55:00
6:15 AM,39.2,32.0,75,29.89,10.0,NNW,15.0,-,N/A,,Overcast,340,2014-01-25 12:15:00
6:35 AM,37.4,30.2,75,29.92,10.0,North,17.3,25.3,N/A,,Overcast,360,2014-01-25 12:35:00
6:55 AM,37.4,30.2,75,29.93,10.0,North,17.3,-,N/A,,Overcast,350,2014-01-25 12:55:00
7:15 AM,37.4,30.2,75,29.95,10.0,NNW,15.0,-,N/A,,Overcast,340,2014-01-25 13:15:00
7:35 AM,33.8,28.4,81,29.98,10.0,North,17.3,28.8,N/A,,Overcast,10,2014-01-25 13:35:00
7:55 AM,32.0,26.6,80,29.99,10.0,North,11.5,-,N/A,,Mostly Cloudy,360,2014-01-25 13:55:00
8:15 AM,32.0,26.6,80,30.00,10.0,North,6.9,-,N/A,,Overcast,360,2014-01-25 14:15:00
8:35 AM,32.0,24.8,75,30.02,10.0,NNW,15.0,20.7,N/A,,Overcast,340,2014-01-25 14:35:00
8:55 AM,32.0,21.2,64,30.03,10.0,NNW,13.8,18.4,N/A,,Overcast,340,2014-01-25 14:55:00
9:15 AM,30.2,21.2,69,30.04,10.0,North,11.5,-,N/A,,Overcast,350,2014-01-25 15:15:00
9:35 AM,30.2,19.4,64,30.05,10.0,North,17.3,23.0,N/A,,Overcast,350,2014-01-25 15:35:00
9:55 AM,30.2,19.4,64,30.05,10.0,North,10.4,-,N/A,,Overcast,350,2014-01-25 15:55:00
10:15 AM,33.8,19.4,56,30.05,10.0,North,9.2,-,N/A,,Mostly Cloudy,350,2014-01-25 16:15:00
10:35 AM,33.8,19.4,56,30.06,10.0,NNW,16.1,-,N/A,,Mostly Cloudy,330,2014-01-25 16:35:00
10:55 AM,33.8,19.4,56,30.06,10.0,North,16.1,24.2,N/A,,Mostly Cloudy,350,2014-01-25 16:55:00
11:15 AM,33.8,17.6,52,30.07,10.0,NNW,20.7,27.6,N/A,,Mostly Cloudy,340,2014-01-25 17:15:00
11:35 AM,33.8,17.6,52,30.06,10.0,North,17.3,-,N/A,,Overcast,350,2014-01-25 17:35:00
11:55 AM,33.8,19.4,56,30.06,10.0,North,12.7,-,N/A,,Mostly Cloudy,350,2014-01-25 17:55:00
12:15 PM,35.6,19.4,52,30.06,10.0,NNW,16.1,21.9,N/A,,Overcast,340,2014-01-25 18:15:00
12:35 PM,35.6,19.4,52,30.04,10.0,NW,19.6,23.0,N/A,,Overcast,320,2014-01-25 18:35:00
12:55 PM,35.6,19.4,52,30.03,10.0,NNW,16.1,20.7,N/A,,Overcast,330,2014-01-25 18:55:00
1:15 PM,35.6,19.4,52,30.02,10.0,NNW,12.7,19.6,N/A,,Overcast,330,2014-01-25 19:15:00
1:35 PM,35.6,19.4,52,30.01,10.0,NNW,13.8,-,N/A,,Overcast,340,2014-01-25 19:35:00
1:55 PM,35.6,19.4,52,30.00,10.0,NW,10.4,-,N/A,,Overcast,320,2014-01-25 19:55:00
2:15 PM,37.4,21.2,52,29.98,10.0,WNW,10.4,-,N/A,,Overcast,300,2014-01-25 20:15:00
2:35 PM,37.4,21.2,52,29.97,10.0,West,10.4,-,N/A,,Overcast,280,2014-01-25 20:35:00
2:55 PM,39.2,23.0,52,29.95,10.0,WNW,9.2,-,N/A,,Overcast,290,2014-01-25 20:55:00
3:15 PM,37.4,21.2,52,29.94,10.0,West,6.9,-,N/A,,Mostly Cloudy,280,2014-01-25 21:15:00
3:35 PM,39.2,24.8,56,29.92,10.0,West,10.4,-,N/A,,Mostly Cloudy,270,2014-01-25 21:35:00
3:55 PM,39.2,23.0,52,29.92,10.0,WSW,6.9,-,N/A,,Partly Cloudy,240,2014-01-25 21:55:00
4:15 PM,39.2,23.0,52,29.90,10.0,WSW,6.9,-,N/A,,Clear,250,2014-01-25 22:15:00
4:35 PM,39.2,23.0,52,29.88,10.0,SW,5.8,-,N/A,,Clear,230,2014-01-25 22:35:00
4:55 PM,37.4,23.0,56,29.87,10.0,SSW,9.2,-,N/A,,Clear,210,2014-01-25 22:55:00
5:15 PM,37.4,23.0,56,29.86,10.0,SSW,8.1,-,N/A,,Mostly Cloudy,200,2014-01-25 23:15:00
5:35 PM,37.4,23.0,56,29.85,10.0,SSW,5.8,-,N/A,,Overcast,200,2014-01-25 23:35:00
5:55 PM,37.4,23.0,56,29.83,10.0,South,9.2,-,N/A,,Overcast,180,2014-01-25 23:55:00
6:15 PM,37.4,23.0,56,29.81,10.0,South,9.2,-,N/A,,Overcast,190,2014-01-26 00:15:00
6:35 PM,37.4,24.8,60,29.79,10.0,South,10.4,-,N/A,,Overcast,190,2014-01-26 00:35:00
6:55 PM,37.4,23.0,56,29.77,10.0,South,9.2,-,N/A,,Mostly Cloudy,190,2014-01-26 00:55:00
7:15 PM,37.4,24.8,60,29.75,10.0,SSW,13.8,18.4,N/A,,Mostly Cloudy,200,2014-01-26 01:15:00
7:35 PM,37.4,24.8,60,29.73,10.0,SSW,15.0,21.9,N/A,,Mostly Cloudy,200,2014-01-26 01:35:00
7:55 PM,37.4,24.8,60,29.70,10.0,SSW,13.8,21.9,N/A,,Clear,200,2014-01-26 01:55:00
8:15 PM,37.4,24.8,60,29.68,10.0,SSW,16.1,-,N/A,,Clear,200,2014-01-26 02:15:00
8:35 PM,37.4,24.8,60,29.66,10.0,SSW,15.0,24.2,N/A,,Clear,210,2014-01-26 02:35:00
8:55 PM,37.4,24.8,60,29.64,10.0,SSW,13.8,21.9,N/A,,Clear,210,2014-01-26 02:55:00
9:15 PM,37.4,26.6,65,29.62,10.0,SSW,13.8,17.3,N/A,,Clear,210,2014-01-26 03:15:00
9:35 PM,39.2,26.6,61,29.60,10.0,SW,15.0,19.6,N/A,,Clear,220,2014-01-26 03:35:00
9:55 PM,41.0,28.4,61,29.60,10.0,SW,13.8,-,N/A,,Clear,230,2014-01-26 03:55:00
10:15 PM,42.8,28.4,57,29.59,10.0,WSW,15.0,21.9,N/A,,Clear,240,2014-01-26 04:15:00
10:35 PM,42.8,28.4,57,29.60,10.0,West,8.1,-,N/A,,Clear,270,2014-01-26 04:35:00
10:55 PM,44.6,30.2,57,29.58,10.0,WSW,13.8,20.7,N/A,,Clear,250,2014-01-26 04:55:00
11:15 PM,44.6,28.4,53,29.57,10.0,West,11.5,23.0,N/A,,Clear,260,2014-01-26 05:15:00
11:35 PM,44.6,28.4,53,29.57,10.0,WSW,15.0,20.7,N/A,,Clear,250,2014-01-26 05:35:00
11:55 PM,44.6,28.4,53,29.57,10.0,West,12.7,-,N/A,,Clear,260,2014-01-26 05:55:00